Regional Weather Roundup
Issued by NWS

Home | Current Version | Previous Version | Graphics & Text | Print | Product List | Glossary Off
Versions: 1 2 3 4 5 6 7 8 9 10 11 12 13 14 15 16 17 18 19 20 21 22 23 24 25 26 27 28 29 30 31 32 33 34 35 36 37 38 39 40 41 42 43 44 45 46 47 48 49 50

000
ASUS43 KMKX 180421
RWRWI

WISCONSIN REGIONAL WEATHER ROUNDUP
NATIONAL WEATHER SERVICE MILWAUKEE/SULLIVAN WI
1000 PM CST WED DEC 17 2014

NOTE: "FAIR" INDICATES FEW OR NO CLOUDS BELOW 12,000 FEET WITH NO
SIGNIFICANT WEATHER AND/OR OBSTRUCTIONS TO VISIBILITY.

WIZ001-002-006>008-014>016-023>028-180500-
NORTHWEST WISCONSIN

CITY           SKY/WX    TMP DP  RH WIND       PRES   REMARKS
SUPERIOR ARPT  CLOUDY    18  16  90 SW5       30.32S WCI  11
ASHLAND        CLOUDY    21  18  88 CALM      30.30S
HAYWARD        CLOUDY    18  13  80 CALM      30.27S
SIREN          CLOUDY    15  13  90 CALM      30.32R
CUMBERLAND     CLOUDY    18  12  79 CALM      30.28S
RICE LAKE      CLOUDY    19  13  79 CALM      30.31R
CHETEK         CLOUDY    19  13  79 CALM      30.29S
LADYSMITH      CLOUDY    20  17  86 NW5       30.27S WCI  14
EAU CLAIRE     CLOUDY    18  11  74 W6        30.30R WCI  10
MENOMONIE      CLOUDY    18  13  80 W5        30.32S WCI  11
NEW RICHMOND   CLOUDY    14  12  92 CALM      30.32S
OSCEOLA        CLOUDY    13  12  98 CALM      30.36R
$$

WIZ003>005-009-010-017-018-180500-
NORTH CENTRAL WISCONSIN

CITY           SKY/WX    TMP DP  RH WIND       PRES   REMARKS
MANITOWISH WTR CLOUDY    20  18  93 NE8       30.21F WCI  10
ARBOR VITAE    CLOUDY    22  19  87 NE8       30.21S WCI  12
WOODRUFF       CLOUDY    22  19  87 NE8       30.21S WCI  12
RHINELANDER    CLOUDY    20  17  88 VRB6      30.20S WCI  12
EAGLE RIVER    CLOUDY    21  20  98 N9        30.20S WCI  10
LAND O LAKES   CLOUDY    22  20  95 N7        30.21S WCI  13
PHILLIPS       CLOUDY    21  18  86 NE13      30.22S WCI   9
TOMAHAWK       CLOUDY    21  18  87 CALM      30.21S
MEDFORD        CLOUDY    20  17  88 NW5       30.21S WCI  14
MERRILL        CLOUDY    23  20  89 NE7       30.21S WCI  14
$$

WIZ029-030-035-036-043>047-180500-
CENTRAL WISCONSIN

CITY           SKY/WX    TMP DP  RH WIND       PRES   REMARKS
WAUSAU         CLOUDY    23  19  85 VRB5      30.20S WCI  17
MOSINEE        CLOUDY    23  21  93 N6        30.22S WCI  16
MARSHFIELD     CLOUDY    20  14  77 W8        30.23S WCI  10
STEVENS POINT  CLOUDY    20  15  79 W3        30.24R
WAUPACA        CLOUDY    24  17  73 W5        30.24S WCI  18
WAUTOMA        CLOUDY    20  14  77 W8        30.28R WCI  10
WISC RAPIDS    CLOUDY    19  12  74 W9        30.27R WCI   8
CAMP DOUGLAS   CLOUDY    19  18  93 W5        30.29R WCI  13
$$

WIZ011>013-019>022-031-037>040-048>050-180500-
NORTHEAST WISCONSIN

CITY           SKY/WX    TMP DP  RH WIND       PRES   REMARKS
ANTIGO         CLOUDY    22  19  91 N10       30.19S WCI  11
SHAWANO        CLOUDY    27  20  75 NW5       30.23S WCI  22
OCONTO         CLOUDY    27  22  83 N7        30.22R WCI  19
STURGEON BAY   CLOUDY    27  21  80 NW13      30.21R WCI  16
GREEN BAY      CLOUDY    27  20  75 NW7       30.22R WCI  19
MANITOWOC      CLOUDY    26  20  77 W8        30.22R WCI  18
APPLETON       CLOUDY    23  16  74 W10       30.22S WCI  12
CLINTONVILLE   CLOUDY    27  19  74 N5        30.23R WCI  21
OSHKOSH        CLOUDY    22  15  75 W10       30.23S WCI  11
$$

WIZ032>034-041-042-053>061-180500-
SOUTHWEST WISCONSIN

CITY           SKY/WX    TMP DP  RH WIND       PRES   REMARKS
LA CROSSE      MOCLDY    19  12  74 N7        30.31F WCI  10
SPARTA         CLOUDY    19  13  79 CALM      30.32R
VIROQUA        PTCLDY    16  13  89 N5        30.25F WCI   9
BOSCOBEL       PTCLDY    20  13  74 NE6       30.29F WCI  12
PRAIRIE DU CHI PTCLDY    19  13  77 CALM      30.30S
PLATTEVILLE    CLEAR     18  15  86 CALM      30.28R
$$

WIZ056-057-062-063-064-067-068-180500-
SOUTH CENTRAL WISCONSIN

CITY           SKY/WX    TMP DP  RH WIND       PRES   REMARKS
REEDSBURG      PTCLDY    17  12  82 NW5       30.28S WCI  10
BARABOO/DELLS  CLOUDY    18  13  82 W5        30.27S WCI  11
LONE ROCK      PTCLDY    22  13  68 N6        30.29F WCI  14
MINERAL POINT  FAIR      19  16  86 N3        30.24F
MADISON        PTCLDY    18  13  80 NW5       30.26F WCI  11
MIDDLETON      PTCLDY    20  15  78 CALM      30.27F
WATERTOWN      CLEAR     19  15  85 NW5       30.26S WCI  12
MONROE         CLOUDY    21  18  86 NW5       30.25S WCI  15
JANESVILLE     CLOUDY    25  18  74 N8        30.25F WCI  16
$$

WIZ051-052-058>065-066-070>072-180500-
SOUTHEAST WISCONSIN

CITY           SKY/WX    TMP DP  RH WIND       PRES   REMARKS
MILWAUKEE      CLEAR     22  13  68 NW8       30.25S WCI  12
WAUKESHA       CLEAR     19  14  79 NW12      30.26S WCI   7
MILWAUKEE/TIMM CLOUDY    21  14  73 W9        30.27R WCI  11
RACINE         PTCLDY    21  14  74 W10       30.27S WCI  10
BURLINGTON     CLEAR     17  13  83 NW3       30.27R
KENOSHA        CLEAR     20  14  77 W7        30.27R WCI  11
FOND DU LAC    CLOUDY    22  14  71 VRB3      30.25R
SHEBOYGAN      CLOUDY    22  15  75 W9        30.23R WCI  12
WEST BEND      MOCLDY    21  14  73 W9        30.25R WCI  11
JUNEAU         CLOUDY    19  14  80 W7        30.27R WCI  10
$$

LSZ147-162-180500-
LAKE SUPERIOR

STATION/POSITION TIME  TEMP    WIND        PRES    WAVE
                       AIR SEA DIR/SP/G            HT/PER
                 (UTC) (F)     (DEG/KT/KT) (MB)    (FT/S)
DEVILS ISLAND    0400   25      70/ 14/ 16 1027.6S
PORT WING        0340   20     140/  2/  4 1026.4S
SAXON HARBOR     0300   27      30/ 11/ 15 1025.7F
$$

LMZ867-665-643>646-180500-
LAKE MICHIGAN

STATION/POSITION TIME  TEMP    WIND        PRES    WAVE
                       AIR SEA DIR/SP/G            HT/PER
                 (UTC) (F)     (DEG/KT/KT) (MB)    (FT/S)
CHAMBERS ISLAND  0340   28     310/ 13/ 15 1022.4S
NORTHPORT PIER   0300   30     350/ 16/ 20 1021.7F
SISTER BAY       0343          360/ 19/ 24   N/A
ALGOMA LAKESHORE 0314          340/ 12/ 15   N/A
KEWAUNEE LAKESHO 0400   27     330/  6/ 10 1021.9R
SHEBOYGAN LAKESH 0400   23 34  270/ 10/ 11 1024.8R
PORT WASHINGTON  0300   22     290/  5/ 10 1024.7
MILWAUKEE LAKESH 0400   22     290/ 13/ 16   N/A
KENOSHA   LAKESH 0400   22     280/  8/  9 1025.1R
$$

TC  - TEMPERATURE IN CELSIUS
VSB - VISIBILITY IN STATUTE MILES
WCI - WIND CHILL INDEX
HX  - HEAT INDEX



USA.gov is the U.S. government's official web portal to all federal, state and local government web resources and services.